1546848001.11,52720,0.0,0.0,-18.07,-18.55,-18.49,0,*61
1546848002.38,52721,0.0,0.0,-18.07,-18.55,-18.55,0,*6D
1546848003.63,52722,0.0,0.0,-18.07,-18.55,-18.49,0,*63
1546848004.9,52723,0.0,0.0,-18.07,-18.55,-18.55,0,*6F
1546848006.14,52724,0.0,0.0,-18.07,-18.49,-18.55,0,*65
1546848007.39,52725,0.0,0.0,-18.07,-18.49,-18.55,0,*64
1546848008.64,52726,0.0,0.0,-18.07,-18.49,-18.55,0,*67
1546848009.86,52727,0.0,0.0,-18.07,-18.49,-18.49,0,*6B
1546848011.1,52728,0.0,0.0,-18.07,-18.49,-18.59,0,*65
1546848012.37,52729,0.0,0.0,-18.05,-18.55,-18.49,0,*6A
1546848013.61,52730,0.0,0.0,-18.05,-18.49,-18.49,0,*6F
1546848014.86,52731,0.0,0.0,-18.05,-18.49,-18.49,0,*6E
1546848016.08,52732,0.0,0.0,-18.07,-18.49,-18.49,0,*6F
1546848017.31,52733,0.0,0.0,-18.07,-18.41,-18.49,0,*66
1546848018.58,52734,0.0,0.0,-18.05,-18.55,-18.49,0,*66
1546848019.85,52735,0.0,0.0,-18.05,-18.55,-18.49,0,*67
1546848021.09,52736,0.0,0.0,-18.05,-18.49,-18.49,0,*69
1546848022.36,52737,0.0,0.0,-18.05,-18.55,-18.49,0,*65
1546848023.63,52738,0.0,0.0,-18.05,-18.55,-18.41,0,*62
1546848024.88,52739,0.0,0.0,-18.05,-18.49,-18.49,0,*66
1546848026.12,52740,0.0,0.0,-18.05,-18.49,-18.49,0,*68
1546848027.39,52741,0.0,0.0,-18.07,-18.55,-18.55,0,*6B
1546848028.64,52742,0.0,0.0,-18.07,-18.55,-18.49,0,*65
1546848029.88,52743,0.0,0.0,-18.05,-18.49,-18.49,0,*6B
1546848031.13,52744,0.0,0.0,-18.05,-18.49,-18.49,0,*6C
1546848032.42,52745,0.0,0.0,-18.05,-18.55,-18.55,0,*6D
1546848033.67,52746,0.0,0.0,-18.05,-18.49,-18.49,0,*6E
1546848034.94,52747,0.0,0.0,-18.05,-18.55,-18.49,0,*62
1546848036.21,52748,0.0,0.0,-18.05,-18.55,-18.49,0,*6D
1546848037.48,52749,0.0,0.0,-18.05,-18.55,-18.49,0,*6C
1546848038.75,52750,0.0,0.0,-18.05,-18.55,-18.65,0,*6A
1546848039.99,52751,0.0,0.0,-18.01,-18.49,-18.49,0,*6C
1546848041.23,52752,0.0,0.0,-18.01,-18.49,-18.45,0,*63
1546848042.47,52753,0.0,0.0,-18.05,-18.49,-18.41,0,*62
1546848043.72,52754,0.0,0.0,-18.05,-18.41,-18.49,0,*65
1546848044.99,52755,0.0,0.0,-18.05,-18.49,-18.55,0,*61
1546848046.23,52756,0.0,0.0,-18.01,-18.45,-18.49,0,*67
1546848047.49,52757,0.0,0.0,-18.01,-18.59,-18.45,0,*67
1546848048.75,52758,0.0,0.0,-18.01,-18.59,-18.49,0,*64
1546848050.02,52759,0.0,0.0,-18.05,-18.55,-18.49,0,*6D
1546848051.27,52760,0.0,0.0,-18.05,-18.49,-18.49,0,*6A
1546848052.51,52761,0.0,0.0,-18.01,-18.45,-18.45,0,*6F
1546848053.76,52762,0.0,0.0,-18.05,-18.49,-18.49,0,*68
1546848055.02,52763,0.0,0.0,-18.01,-18.35,-18.45,0,*6A
1546848056.26,52764,0.0,0.0,-18.01,-18.49,-18.45,0,*66
1546848057.51,52765,0.0,0.0,-18.05,-18.49,-18.49,0,*6F
1546848058.77,52766,0.0,0.0,-18.01,-18.55,-18.45,0,*69
1546848060.04,52767,0.0,0.0,-18.01,-18.45,-18.35,0,*6E
1546848061.28,52768,0.0,0.0,-18.01,-18.49,-18.45,0,*6A
1546848062.52,52769,0.0,0.0,-18.01,-18.45,-18.49,0,*6B
1546848063.79,52770,0.0,0.0,-18.05,-18.55,-18.41,0,*6E
1546848065.03,52771,0.0,0.0,-18.01,-18.49,-18.45,0,*62
1546848066.27,52772,0.0,0.0,-18.05,-18.49,-18.49,0,*69
1546848067.54,52773,0.0,0.0,-18.05,-18.55,-18.41,0,*6D
1546848068.78,52774,0.0,0.0,-18.01,-18.45,-18.45,0,*6B
1546848070.02,52775,0.0,0.0,-18.01,-18.49,-18.49,0,*6A
1546848071.27,52776,0.0,0.0,-18.01,-18.49,-18.59,0,*68
1546848072.49,52777,0.0,0.0,-17.99,-18.45,-18.49,0,*6A
1546848073.71,52778,0.0,0.0,-17.99,-18.49,-18.45,0,*65
1546848074.93,52779,0.0,0.0,-17.99,-18.49,-18.49,0,*68
1546848076.16,52780,0.0,0.0,-18.01,-18.45,-18.45,0,*60
1546848077.41,52781,0.0,0.0,-18.01,-18.45,-18.45,0,*61
1546848078.65,52782,0.0,0.0,-18.01,-18.45,-18.45,0,*62
1546848079.89,52783,0.0,0.0,-18.01,-18.49,-18.49,0,*63
1546848081.15,52784,0.0,0.0,-18.05,-18.49,-18.55,0,*6D
1546848082.39,52785,0.0,0.0,-18.01,-18.49,-18.45,0,*69
1546848083.61,52786,0.0,0.0,-17.99,-18.49,-18.45,0,*64
1546848084.83,52787,0.0,0.0,-17.99,-18.49,-18.49,0,*69
1546848086.04,52788,0.0,0.0,-17.99,-18.45,-18.49,0,*6A
1546848087.26,52789,0.0,0.0,-17.99,-18.49,-18.45,0,*6B
1546848088.48,52790,0.0,0.0,-17.99,-18.49,-18.49,0,*6F
1546848089.69,52791,0.0,0.0,-17.99,-18.45,-18.49,0,*62
1546848090.95,52792,0.0,0.0,-18.01,-18.45,-18.59,0,*6E
1546848092.19,52793,0.0,0.0,-18.01,-18.45,-18.45,0,*62
1546848093.43,52794,0.0,0.0,-17.97,-18.41,-18.41,0,*65
1546848094.67,52795,0.0,0.0,-18.01,-18.49,-18.45,0,*68
1546848095.89,52796,0.0,0.0,-17.99,-18.45,-18.45,0,*69
1546848097.14,52797,0.0,0.0,-17.97,-18.45,-18.45,0,*66
1546848098.35,52798,0.0,0.0,-17.99,-18.49,-18.49,0,*67
1546848099.6,52799,0.0,0.0,-17.99,-18.49,-18.35,0,*6D
1546848100.81,52800,0.0,0.0,-17.99,-18.45,-18.45,0,*69
1546848102.03,52801,0.0,0.0,-17.99,-18.49,-18.45,0,*64
1546848103.25,52802,0.0,0.0,-17.99,-18.45,-18.45,0,*6B
1546848104.46,52803,0.0,0.0,-17.99,-18.49,-18.49,0,*6A
1546848105.68,52804,0.0,0.0,-17.99,-18.45,-18.45,0,*6D
1546848106.9,52805,0.0,0.0,-17.99,-18.45,-18.45,0,*6C
1546848108.12,52806,0.0,0.0,-17.99,-18.49,-18.49,0,*6F
1546848109.33,52807,0.0,0.0,-17.99,-18.45,-18.49,0,*62
1546848110.55,52808,0.0,0.0,-17.99,-18.49,-18.49,0,*61
1546848111.77,52809,0.0,0.0,-17.99,-18.45,-18.49,0,*6C
1546848112.98,52810,0.0,0.0,-17.99,-18.49,-18.49,0,*68
1546848114.2,52811,0.0,0.0,-17.99,-18.45,-18.45,0,*69
1546848115.44,52812,0.0,0.0,-17.97,-18.41,-18.41,0,*64
1546848116.66,52813,0.0,0.0,-17.99,-18.49,-18.45,0,*67
1546848117.9,52814,0.0,0.0,-17.97,-18.41,-18.45,0,*66
1546848119.12,52815,0.0,0.0,-17.99,-18.45,-18.49,0,*61
1546848120.34,52816,0.0,0.0,-17.99,-18.49,-18.49,0,*6E
1546848121.55,52817,0.0,0.0,-17.99,-18.49,-18.45,0,*63
1546848122.8,52818,0.0,0.0,-17.99,-18.59,-18.45,0,*6D
1546848124.04,52819,0.0,0.0,-17.97,-18.41,-18.45,0,*6B
1546848125.26,52820,0.0,0.0,-17.99,-18.49,-18.45,0,*67
1546848126.47,52821,0.0,0.0,-17.99,-18.45,-18.45,0,*6A
1546848127.69,52822,0.0,0.0,-17.99,-18.45,-18.49,0,*65
1546848128.93,52823,0.0,0.0,-17.99,-18.45,-18.59,0,*65
1546848130.14,52824,0.0,0.0,-17.99,-18.49,-18.45,0,*63
1546848131.39,52825,0.0,0.0,-17.97,-18.41,-18.45,0,*64
1546848132.6,52826,0.0,0.0,-17.99,-18.49,-18.45,0,*61
1546848133.85,52827,0.0,0.0,-17.97,-18.41,-18.41,0,*62
1546848135.06,52828,0.0,0.0,-17.99,-18.49,-18.45,0,*6F
1546848136.28,52829,0.0,0.0,-17.99,-18.49,-18.49,0,*62
1546848137.5,52830,0.0,0.0,-17.99,-18.45,-18.45,0,*6A
1546848138.74,52831,0.0,0.0,-17.97,-18.41,-18.45,0,*61
1546848139.99,52832,0.0,0.0,-17.97,-18.41,-18.45,0,*62
1546848141.23,52833,0.0,0.0,-17.99,-18.59,-18.45,0,*64
1546848142.45,52834,0.0,0.0,-17.99,-18.45,-18.45,0,*6E
1546848143.69,52835,0.0,0.0,-17.97,-18.41,-18.41,0,*61
1546848144.93,52836,0.0,0.0,-17.99,-18.35,-18.45,0,*6B
1546848146.15,52837,0.0,0.0,-17.99,-18.49,-18.49,0,*6D
1546848147.39,52838,0.0,0.0,-17.97,-18.45,-18.41,0,*68
1546848148.63,52839,0.0,0.0,-17.97,-18.45,-18.41,0,*69
1546848149.85,52840,0.0,0.0,-17.99,-18.49,-18.49,0,*6D
1546848151.09,52841,0.0,0.0,-17.97,-18.45,-18.41,0,*66
1546848152.35,52842,0.0,0.0,-17.97,-18.45,-18.55,0,*60
1546848153.57,52843,0.0,0.0,-17.99,-18.45,-18.49,0,*62
1546848154.84,52844,0.0,0.0,-17.97,-18.31,-18.41,0,*60
1546848156.08,52845,0.0,0.0,-17.97,-18.41,-18.45,0,*62
1546848157.33,52846,0.0,0.0,-17.97,-18.41,-18.41,0,*65
1546848158.54,52847,0.0,0.0,-17.99,-18.45,-18.49,0,*66
1546848159.76,52848,0.0,0.0,-17.99,-18.45,-18.41,0,*61
1546848161.0,52849,0.0,0.0,-17.97,-18.45,-18.45,0,*6A
1546848162.22,52850,0.0,0.0,-17.99,-18.41,-18.41,0,*6C
1546848163.44,52851,0.0,0.0,-17.99,-18.49,-18.45,0,*61
1546848164.71,52852,0.0,0.0,-17.97,-18.41,-18.31,0,*67
1546848165.95,52853,0.0,0.0,-17.97,-18.45,-18.41,0,*65
1546848167.2,52854,0.0,0.0,-17.97,-18.41,-18.45,0,*62
1546848168.44,52855,0.0,0.0,-17.97,-18.45,-18.41,0,*63
1546848169.68,52856,0.0,0.0,-17.97,-18.45,-18.41,0,*60
1546848170.95,52857,0.0,0.0,-17.97,-18.31,-18.41,0,*62
1546848172.19,52858,0.0,0.0,-17.97,-18.41,-18.41,0,*6A
1546848173.41,52859,0.0,0.0,-17.95,-18.41,-18.45,0,*6D
1546848174.63,52860,0.0,0.0,-17.95,-18.41,-18.45,0,*67
1546848175.85,52861,0.0,0.0,-17.95,-18.41,-18.45,0,*66
1546848177.09,52862,0.0,0.0,-17.97,-18.41,-18.41,0,*63
1546848178.33,52863,0.0,0.0,-17.97,-18.45,-18.41,0,*66
1546848179.55,52864,0.0,0.0,-17.95,-18.45,-18.41,0,*63
1546848180.76,52865,0.0,0.0,-17.95,-18.41,-18.41,0,*66
1546848181.98,52866,0.0,0.0,-17.99,-18.45,-18.45,0,*69
1546848183.19,52867,0.0,0.0,-17.95,-18.41,-18.41,0,*64
1546848184.41,52868,0.0,0.0,-17.95,-18.41,-18.45,0,*6F
1546848185.69,52869,0.0,0.0,-17.97,-18.31,-18.45,0,*6B
1546848186.93,52870,0.0,0.0,-17.97,-18.41,-18.41,0,*60
1546848188.18,52871,0.0,0.0,-17.95,-18.45,-18.31,0,*60
1546848189.39,52872,0.0,0.0,-17.95,-18.41,-18.45,0,*64
1546848190.61,52873,0.0,0.0,-17.95,-18.41,-18.45,0,*65
1546848191.83,52874,0.0,0.0,-17.95,-18.45,-18.45,0,*66
1546848193.05,52875,0.0,0.0,-17.95,-18.41,-18.41,0,*67
1546848194.26,52876,0.0,0.0,-17.95,-18.41,-18.41,0,*64
1546848195.5,52877,0.0,0.0,-17.97,-18.45,-18.41,0,*63
1546848196.75,52878,0.0,0.0,-17.97,-18.45,-18.45,0,*68
1546848197.99,52879,0.0,0.0,-17.97,-18.41,-18.41,0,*69
1546848199.2,52880,0.0,0.0,-17.95,-18.45,-18.41,0,*69
1546848200.42,52881,0.0,0.0,-17.95,-18.41,-18.41,0,*6C
1546848201.64,52882,0.0,0.0,-17.95,-18.41,-18.45,0,*6B
1546848202.88,52883,0.0,0.0,-17.95,-18.31,-18.41,0,*69
1546848204.1,52884,0.0,0.0,-17.95,-18.45,-18.45,0,*69
1546848205.32,52885,0.0,0.0,-17.95,-18.41,-18.45,0,*6C
1546848206.58,52886,0.0,0.0,-17.93,-18.35,-18.41,0,*6E
1546848207.87,52887,0.0,0.0,-17.93,-18.35,-18.35,0,*6C
1546848209.09,52888,0.0,0.0,-17.95,-18.41,-18.41,0,*65
1546848210.31,52889,0.0,0.0,-17.95,-18.41,-18.41,0,*64
1546848211.6,52890,0.0,0.0,-17.93,-18.35,-18.35,0,*6A
1546848212.89,52891,0.0,0.0,-17.93,-18.35,-18.35,0,*6B
1546848214.11,52892,0.0,0.0,-17.95,-18.45,-18.41,0,*6A
1546848215.37,52893,0.0,0.0,-17.93,-18.35,-18.41,0,*6A
1546848216.63,52894,0.0,0.0,-17.93,-18.35,-18.41,0,*6D
1546848217.9,52895,0.0,0.0,-17.93,-18.35,-18.41,0,*6C
1546848219.13,52896,0.0,0.0,-17.95,-18.35,-18.25,0,*6B
1546848220.4,52897,0.0,0.0,-17.93,-18.35,-18.41,0,*6E
1546848221.67,52898,0.0,0.0,-17.93,-18.41,-18.35,0,*61
1546848222.88,52899,0.0,0.0,-17.95,-18.41,-18.41,0,*65
1546848224.1,52900,0.0,0.0,-17.95,-18.41,-18.45,0,*60
1546848225.32,52901,0.0,0.0,-17.95,-18.41,-18.41,0,*65
1546848226.61,52902,0.0,0.0,-17.93,-18.35,-18.35,0,*60
1546848227.82,52903,0.0,0.0,-17.95,-18.45,-18.41,0,*63
1546848229.04,52904,0.0,0.0,-17.95,-18.41,-18.41,0,*60
1546848230.3,52905,0.0,0.0,-17.93,-18.35,-18.25,0,*66
1546848231.56,52906,0.0,0.0,-17.93,-18.35,-18.41,0,*67
1546848232.81,52907,0.0,0.0,-17.95,-18.41,-18.55,0,*66
1546848234.04,52908,0.0,0.0,-17.93,-18.25,-18.41,0,*68
1546848235.3,52909,0.0,0.0,-17.93,-18.35,-18.41,0,*68
1546848236.52,52910,0.0,0.0,-17.95,-18.41,-18.41,0,*65
1546848237.78,52911,0.0,0.0,-17.93,-18.35,-18.41,0,*61
1546848239.03,52912,0.0,0.0,-17.95,-18.41,-18.31,0,*60
1546848240.29,52913,0.0,0.0,-17.93,-18.35,-18.25,0,*61
1546848241.54,52914,0.0,0.0,-17.95,-18.45,-18.31,0,*62
1546848242.8,52915,0.0,0.0,-17.89,-18.35,-18.41,0,*6E
1546848244.1,52916,0.0,0.0,-17.89,-18.35,-18.35,0,*6E
1546848245.31,52917,0.0,0.0,-17.95,-18.41,-18.41,0,*62
1546848246.61,52918,0.0,0.0,-17.93,-18.35,-18.35,0,*6B
1546848247.9,52919,0.0,0.0,-17.93,-18.35,-18.35,0,*6A
1546848249.17,52920,0.0,0.0,-17.93,-18.35,-18.41,0,*63
1546848250.46,52921,0.0,0.0,-17.93,-18.35,-18.35,0,*61
1546848251.7,52922,0.0,0.0,-17.93,-18.41,-18.41,0,*62
1546848252.94,52923,0.0,0.0,-17.93,-18.41,-18.49,0,*6B
1546848254.23,52924,0.0,0.0,-17.93,-18.35,-18.35,0,*64
1546848255.49,52925,0.0,0.0,-17.93,-18.35,-18.25,0,*64
1546848256.79,52926,0.0,0.0,-17.93,-18.35,-18.35,0,*66
1546848258.02,52927,0.0,0.0,-17.93,-18.41,-18.25,0,*65
1546848259.28,52928,0.0,0.0,-17.93,-18.35,-18.25,0,*69
1546848260.58,52929,0.0,0.0,-17.93,-18.35,-18.35,0,*69
1546848261.85,52930,0.0,0.0,-17.93,-18.41,-18.35,0,*62
1546848263.09,52931,0.0,0.0,-17.93,-18.41,-18.41,0,*60
1546848264.38,52932,0.0,0.0,-17.93,-18.35,-18.35,0,*63
1546848265.65,52933,0.0,0.0,-17.93,-18.41,-18.35,0,*61
1546848266.92,52934,0.0,0.0,-17.93,-18.41,-18.35,0,*66
1546848268.21,52935,0.0,0.0,-17.93,-18.35,-18.35,0,*64
1546848269.47,52936,0.0,0.0,-17.89,-18.35,-18.25,0,*6D
1546848270.75,52937,0.0,0.0,-17.87,-18.31,-18.35,0,*67
1546848272.04,52938,0.0,0.0,-17.89,-18.35,-18.35,0,*62
1546848273.31,52939,0.0,0.0,-17.89,-18.25,-18.35,0,*62
1546848274.58,52940,0.0,0.0,-17.89,-18.41,-18.35,0,*6E
1546848275.87,52941,0.0,0.0,-17.89,-18.35,-18.35,0,*6C
1546848277.13,52942,0.0,0.0,-17.89,-18.35,-18.41,0,*6C
1546848278.37,52943,0.0,0.0,-17.93,-18.25,-18.41,0,*67
1546848279.64,52944,0.0,0.0,-17.89,-18.41,-18.35,0,*6A
1546848280.91,52945,0.0,0.0,-17.87,-18.31,-18.35,0,*62
1546848282.21,52946,0.0,0.0,-17.89,-18.35,-18.35,0,*6B
1546848283.48,52947,0.0,0.0,-17.89,-18.41,-18.35,0,*69
1546848284.75,52948,0.0,0.0,-17.87,-18.31,-18.31,0,*6B
1546848285.99,52949,0.0,0.0,-17.89,-18.41,-18.41,0,*64
1546848287.29,52950,0.0,0.0,-17.89,-18.35,-18.35,0,*6C
1546848288.56,52951,0.0,0.0,-17.87,-18.31,-18.35,0,*67
1546848289.83,52952,0.0,0.0,-17.89,-18.41,-18.35,0,*6D
1546848291.12,52953,0.0,0.0,-17.89,-18.35,-18.35,0,*6F
1546848292.36,52954,0.0,0.0,-17.89,-18.41,-18.41,0,*68
1546848293.66,52955,0.0,0.0,-17.89,-18.35,-18.35,0,*69
1546848294.93,52956,0.0,0.0,-17.87,-18.31,-18.35,0,*60
1546848296.17,52957,0.0,0.0,-17.89,-18.41,-18.41,0,*6B
1546848297.47,52958,0.0,0.0,-17.89,-18.35,-18.35,0,*64
1546848298.76,52959,0.0,0.0,-17.89,-18.35,-18.35,0,*65
1546848300.03,52960,0.0,0.0,-17.87,-18.35,-18.31,0,*65
1546848301.3,52961,0.0,0.0,-17.89,-18.41,-18.35,0,*6D
1546848302.6,52962,0.0,0.0,-17.89,-18.35,-18.35,0,*6D
1546848303.87,52963,0.0,0.0,-17.87,-18.31,-18.31,0,*62
1546848305.14,52964,0.0,0.0,-17.89,-18.41,-18.35,0,*68
1546848306.42,52965,0.0,0.0,-17.87,-18.35,-18.31,0,*60
1546848307.69,52966,0.0,0.0,-17.87,-18.35,-18.35,0,*67
1546848308.95,52967,0.0,0.0,-17.89,-18.35,-18.25,0,*69
1546848310.22,52968,0.0,0.0,-17.87,-18.31,-18.31,0,*69
1546848311.5,52969,0.0,0.0,-17.87,-18.31,-18.31,0,*68
1546848312.77,52970,0.0,0.0,-17.87,-18.35,-18.35,0,*60
1546848314.04,52971,0.0,0.0,-17.87,-18.31,-18.35,0,*65
1546848315.32,52972,0.0,0.0,-17.87,-18.31,-18.31,0,*62
1546848316.59,52973,0.0,0.0,-17.89,-18.25,-18.35,0,*6C
1546848317.88,52974,0.0,0.0,-17.89,-18.35,-18.35,0,*6A
1546848319.15,52975,0.0,0.0,-17.87,-18.31,-18.35,0,*61
1546848320.42,52976,0.0,0.0,-17.89,-18.35,-18.41,0,*6B
1546848321.69,52977,0.0,0.0,-17.87,-18.31,-18.31,0,*67
1546848322.94,52978,0.0,0.0,-17.87,-18.21,-18.35,0,*6D
1546848324.21,52979,0.0,0.0,-17.87,-18.31,-18.31,0,*69
1546848325.45,52980,0.0,0.0,-17.89,-18.41,-18.41,0,*61
1546848326.69,52981,0.0,0.0,-17.89,-18.41,-18.41,0,*60
1546848327.97,52982,0.0,0.0,-17.87,-18.31,-18.31,0,*6D
1546848329.21,52983,0.0,0.0,-17.87,-18.21,-18.31,0,*6D
1546848330.49,52984,0.0,0.0,-17.87,-18.31,-18.31,0,*6B
1546848331.76,52985,0.0,0.0,-17.89,-18.41,-18.35,0,*67
1546848333.06,52986,0.0,0.0,-17.89,-18.35,-18.35,0,*67
1546848334.32,52987,0.0,0.0,-17.89,-18.35,-18.25,0,*67
1546848335.59,52988,0.0,0.0,-17.87,-18.31,-18.31,0,*67
1546848336.89,52989,0.0,0.0,-17.85,-18.31,-18.35,0,*60
1546848338.18,52990,0.0,0.0,-17.85,-18.35,-18.35,0,*6C
1546848339.44,52991,0.0,0.0,-17.85,-18.21,-18.35,0,*68
1546848340.74,52992,0.0,0.0,-17.85,-18.31,-18.31,0,*6E
1546848342.01,52993,0.0,0.0,-17.87,-18.31,-18.31,0,*6D
1546848343.29,52994,0.0,0.0,-17.87,-18.31,-18.31,0,*6A
1546848344.57,52995,0.0,0.0,-17.87,-18.31,-18.31,0,*6B
1546848345.84,52996,0.0,0.0,-17.87,-18.31,-18.31,0,*68
1546848347.12,52997,0.0,0.0,-17.87,-18.31,-18.31,0,*69
1546848348.41,52998,0.0,0.0,-17.85,-18.35,-18.31,0,*60
1546848349.71,52999,0.0,0.0,-17.85,-18.31,-18.31,0,*65
1546848351.01,53000,0.0,0.0,-17.85,-18.31,-18.31,0,*6D
1546848352.3,53001,0.0,0.0,-17.85,-18.35,-18.35,0,*6C
1546848353.57,53002,0.0,0.0,-17.87,-18.35,-18.35,0,*6D
1546848354.83,53003,0.0,0.0,-17.85,-18.35,-18.21,0,*6B
1546848356.12,53004,0.0,0.0,-17.85,-18.35,-18.31,0,*6D
1546848357.42,53005,0.0,0.0,-17.85,-18.31,-18.31,0,*68
1546848358.72,53006,0.0,0.0,-17.85,-18.31,-18.31,0,*6B
1546848360.01,53007,0.0,0.0,-17.85,-18.31,-18.31,0,*6A
1546848361.28,53008,0.0,0.0,-17.85,-18.21,-18.35,0,*60
1546848362.54,53009,0.0,0.0,-17.85,-18.31,-18.21,0,*65
1546848363.84,53010,0.0,0.0,-17.85,-18.31,-18.31,0,*6C
1546848365.14,53011,0.0,0.0,-17.85,-18.31,-18.31,0,*6D
1546848366.43,53012,0.0,0.0,-17.85,-18.35,-18.31,0,*6A
1546848367.7,53013,0.0,0.0,-17.85,-18.21,-18.31,0,*6E
1546848369.0,53014,0.0,0.0,-17.85,-18.31,-18.31,0,*68
1546848370.29,53015,0.0,0.0,-17.85,-18.31,-18.31,0,*69
1546848371.59,53016,0.0,0.0,-17.85,-18.31,-18.31,0,*6A
1546848372.88,53017,0.0,0.0,-17.85,-18.35,-18.31,0,*6F
1546848374.18,53018,0.0,0.0,-17.85,-18.31,-18.35,0,*60
1546848375.47,53019,0.0,0.0,-17.85,-18.31,-18.31,0,*65
1546848376.77,53020,0.0,0.0,-17.85,-18.31,-18.35,0,*6B
1546848378.06,53021,0.0,0.0,-17.85,-18.31,-18.35,0,*6A
1546848379.33,53022,0.0,0.0,-17.85,-18.31,-18.21,0,*6C
1546848380.62,53023,0.0,0.0,-17.85,-18.31,-18.35,0,*68
1546848381.89,53024,0.0,0.0,-17.85,-18.31,-18.21,0,*6A
1546848383.18,53025,0.0,0.0,-17.85,-18.31,-18.35,0,*6E
1546848384.48,53026,0.0,0.0,-17.85,-18.31,-18.31,0,*69
1546848385.74,53027,0.0,0.0,-17.85,-18.21,-18.31,0,*69
1546848387.03,53028,0.0,0.0,-17.85,-18.35,-18.35,0,*67
1546848388.33,53029,0.0,0.0,-17.85,-18.35,-18.31,0,*62
1546848389.63,53030,0.0,0.0,-17.85,-18.31,-18.31,0,*6E
1546848390.92,53031,0.0,0.0,-17.85,-18.31,-18.31,0,*6F
1546848392.22,53032,0.0,0.0,-17.85,-18.31,-18.35,0,*68
1546848393.48,53033,0.0,0.0,-17.85,-18.21,-18.31,0,*6C
1546848394.78,53034,0.0,0.0,-17.85,-18.31,-18.35,0,*6E
1546848396.07,53035,0.0,0.0,-17.85,-18.31,-18.35,0,*6F
1546848397.36,53036,0.0,0.0,-17.85,-18.35,-18.31,0,*6C
1546848398.63,53037,0.0,0.0,-17.85,-18.21,-18.31,0,*68
1546848399.9,53038,0.0,0.0,-17.85,-18.21,-18.31,0,*67
1546848401.19,53039,0.0,0.0,-17.85,-18.35,-18.31,0,*63
1546848402.49,53040,0.0,0.0,-17.85,-18.31,-18.35,0,*6D
1546848403.78,53041,0.0,0.0,-17.85,-18.31,-18.31,0,*68
1546848405.08,53042,0.0,0.0,-17.85,-18.31,-18.31,0,*6B
1546848406.37,53043,0.0,0.0,-17.85,-18.31,-18.35,0,*6E
1546848407.64,53044,0.0,0.0,-17.85,-18.31,-18.21,0,*6C
1546848408.91,53045,0.0,0.0,-17.85,-18.31,-18.21,0,*6D
1546848410.2,53046,0.0,0.0,-17.85,-18.31,-18.31,0,*6F
1546848411.44,53047,0.0,0.0,-17.85,-18.21,-18.21,0,*6E
1546848412.65,53048,0.0,0.0,-17.83,-18.17,-18.25,0,*66
1546848413.94,53049,0.0,0.0,-17.85,-18.31,-18.31,0,*60
1546848415.24,53050,0.0,0.0,-17.85,-18.31,-18.31,0,*68
1546848416.54,53051,0.0,0.0,-17.85,-18.31,-18.31,0,*69
1546848417.84,53052,0.0,0.0,-17.85,-18.31,-18.31,0,*6A
1546848419.1,53053,0.0,0.0,-17.85,-18.31,-18.21,0,*6A
1546848420.35,53054,0.0,0.0,-17.83,-18.25,-18.31,0,*6F
1546848421.64,53055,0.0,0.0,-17.85,-18.35,-18.35,0,*6D
1546848422.93,53056,0.0,0.0,-17.85,-18.31,-18.31,0,*6E
1546848424.23,53057,0.0,0.0,-17.85,-18.35,-18.31,0,*6B
1546848425.53,53058,0.0,0.0,-17.85,-18.31,-18.31,0,*60
1546848426.82,53059,0.0,0.0,-17.85,-18.35,-18.31,0,*65
1546848428.12,53060,0.0,0.0,-17.85,-18.31,-18.31,0,*6B
1546848429.41,53061,0.0,0.0,-17.85,-18.31,-18.31,0,*6A
1546848430.71,53062,0.0,0.0,-17.85,-18.35,-18.31,0,*6D
1546848431.92,53063,0.0,0.0,-17.83,-18.25,-18.25,0,*6E
1546848433.21,53064,0.0,0.0,-17.85,-18.31,-18.31,0,*6F
1546848434.51,53065,0.0,0.0,-17.85,-18.31,-18.31,0,*6E
1546848435.75,53066,0.0,0.0,-17.83,-18.31,-18.25,0,*6E
1546848436.96,53067,0.0,0.0,-17.83,-18.25,-18.17,0,*6B
1546848438.17,53068,0.0,0.0,-17.83,-18.25,-18.25,0,*65
1546848439.41,53069,0.0,0.0,-17.83,-18.31,-18.25,0,*61
1546848440.66,53070,0.0,0.0,-17.79,-18.21,-18.21,0,*69
1546848441.86,53071,0.0,0.0,-17.83,-18.25,-18.25,0,*6D
1546848443.11,53072,0.0,0.0,-17.83,-18.25,-18.31,0,*6B
1546848444.35,53073,0.0,0.0,-17.83,-18.31,-18.25,0,*6A
1546848445.63,53074,0.0,0.0,-17.83,-18.31,-18.31,0,*68
1546848446.84,53075,0.0,0.0,-17.83,-18.25,-18.25,0,*69
1546848448.05,53076,0.0,0.0,-17.83,-18.25,-18.25,0,*6A
1546848449.26,53077,0.0,0.0,-17.83,-18.25,-18.25,0,*6B
1546848450.5,53078,0.0,0.0,-17.83,-18.31,-18.25,0,*61
1546848451.7,53079,0.0,0.0,-17.83,-18.25,-18.25,0,*65
1546848452.91,53080,0.0,0.0,-17.83,-18.25,-18.25,0,*63
1546848454.12,53081,0.0,0.0,-17.83,-18.25,-18.25,0,*62
1546848455.33,53082,0.0,0.0,-17.83,-18.25,-18.25,0,*61
1546848456.57,53083,0.0,0.0,-17.83,-18.31,-18.25,0,*65
1546848457.78,53084,0.0,0.0,-17.83,-18.25,-18.25,0,*67
1546848458.99,53085,0.0,0.0,-17.83,-18.25,-18.25,0,*66
1546848460.2,53086,0.0,0.0,-17.83,-18.25,-18.25,0,*65
1546848461.41,53087,0.0,0.0,-17.83,-18.17,-18.17,0,*64
1546848462.65,53088,0.0,0.0,-17.83,-18.31,-18.25,0,*6E
1546848463.9,53089,0.0,0.0,-17.83,-18.25,-18.31,0,*6F
1546848465.11,53090,0.0,0.0,-17.83,-18.25,-18.25,0,*62
1546848466.32,53091,0.0,0.0,-17.83,-18.25,-18.25,0,*63
1546848467.53,53092,0.0,0.0,-17.83,-18.25,-18.25,0,*60
1546848468.77,53093,0.0,0.0,-17.83,-18.31,-18.25,0,*64
1546848470.01,53094,0.0,0.0,-17.83,-18.31,-18.25,0,*63
1546848471.25,53095,0.0,0.0,-17.79,-18.21,-18.11,0,*61
1546848472.5,53096,0.0,0.0,-17.79,-18.25,-18.21,0,*65
1546848473.71,53097,0.0,0.0,-17.83,-18.25,-18.25,0,*65
1546848474.95,53098,0.0,0.0,-17.79,-18.25,-18.11,0,*68
1546848476.2,53099,0.0,0.0,-17.79,-18.21,-18.11,0,*6D
1546848477.42,53100,0.0,0.0,-17.83,-18.25,-18.17,0,*6B
1546848478.66,53101,0.0,0.0,-17.83,-18.31,-18.17,0,*6F
1546848479.9,53102,0.0,0.0,-17.83,-18.31,-18.25,0,*6D
1546848481.14,53103,0.0,0.0,-17.83,-18.31,-18.25,0,*6C
1546848482.35,53104,0.0,0.0,-17.83,-18.25,-18.25,0,*6E
1546848483.59,53105,0.0,0.0,-17.79,-18.25,-18.21,0,*6E
1546848484.83,53106,0.0,0.0,-17.79,-18.21,-18.25,0,*6D
1546848486.04,53107,0.0,0.0,-17.83,-18.17,-18.17,0,*6D
1546848487.28,53108,0.0,0.0,-17.79,-18.21,-18.21,0,*67
1546848488.49,53109,0.0,0.0,-17.83,-18.25,-18.17,0,*62
1546848489.73,53110,0.0,0.0,-17.79,-18.11,-18.25,0,*69
1546848490.97,53111,0.0,0.0,-17.79,-18.25,-18.25,0,*6F
1546848492.18,53112,0.0,0.0,-17.83,-18.25,-18.25,0,*69
1546848493.4,53113,0.0,0.0,-17.77,-18.21,-18.07,0,*67
1546848494.64,53114,0.0,0.0,-17.79,-18.11,-18.21,0,*69
1546848495.89,53115,0.0,0.0,-17.79,-18.21,-18.11,0,*68
1546848497.14,53116,0.0,0.0,-17.79,-18.25,-18.11,0,*6F
1546848498.39,53117,0.0,0.0,-17.79,-18.21,-18.11,0,*6A
1546848499.62,53118,0.0,0.0,-17.79,-18.21,-18.25,0,*62
1546848500.87,53119,0.0,0.0,-17.79,-18.21,-18.21,0,*67
1546848502.08,53120,0.0,0.0,-17.83,-18.21,-18.21,0,*68
1546848503.32,53121,0.0,0.0,-17.79,-18.11,-18.21,0,*6F
1546848504.57,53122,0.0,0.0,-17.79,-18.21,-18.21,0,*6F
1546848505.81,53123,0.0,0.0,-17.79,-18.21,-18.21,0,*6E
1546848507.05,53124,0.0,0.0,-17.79,-18.11,-18.21,0,*6A
1546848508.29,53125,0.0,0.0,-17.79,-18.21,-18.25,0,*6C
1546848509.51,53126,0.0,0.0,-17.77,-18.21,-18.21,0,*65
1546848510.73,53127,0.0,0.0,-17.77,-18.21,-18.21,0,*64
1546848511.94,53128,0.0,0.0,-17.77,-18.21,-18.25,0,*6F
1546848513.16,53129,0.0,0.0,-17.77,-18.21,-18.21,0,*6A
1546848514.38,53130,0.0,0.0,-17.77,-18.21,-18.21,0,*62
1546848515.6,53131,0.0,0.0,-17.77,-18.21,-18.11,0,*60
1546848516.82,53132,0.0,0.0,-17.77,-18.21,-18.21,0,*60
1546848518.04,53133,0.0,0.0,-17.77,-18.21,-18.21,0,*61
1546848519.29,53134,0.0,0.0,-17.79,-18.21,-18.21,0,*68
1546848520.5,53135,0.0,0.0,-17.77,-18.21,-18.21,0,*67
1546848521.75,53136,0.0,0.0,-17.79,-18.21,-18.21,0,*6A
1546848523.0,53137,0.0,0.0,-17.79,-18.21,-18.11,0,*68
1546848524.24,53138,0.0,0.0,-17.79,-18.21,-18.21,0,*64
1546848525.48,53139,0.0,0.0,-17.79,-18.11,-18.21,0,*66
1546848526.7,53140,0.0,0.0,-17.77,-18.21,-18.21,0,*65
1546848527.92,53141,0.0,0.0,-17.77,-18.21,-18.21,0,*64
1546848529.14,53142,0.0,0.0,-17.77,-18.21,-18.21,0,*67
1546848530.36,53143,0.0,0.0,-17.77,-18.21,-18.21,0,*66
1546848531.6,53144,0.0,0.0,-17.75,-18.17,-18.17,0,*63
1546848532.85,53145,0.0,0.0,-17.75,-18.17,-18.17,0,*62
1546848534.07,53146,0.0,0.0,-17.77,-18.21,-18.21,0,*63
1546848535.29,53147,0.0,0.0,-17.77,-18.25,-18.21,0,*66
1546848536.51,53148,0.0,0.0,-17.77,-18.07,-18.21,0,*69
1546848537.73,53149,0.0,0.0,-17.77,-18.21,-18.21,0,*6C
1546848538.97,53150,0.0,0.0,-17.75,-18.17,-18.17,0,*66
1546848540.22,53151,0.0,0.0,-17.75,-18.17,-18.21,0,*62
1546848541.47,53152,0.0,0.0,-17.75,-18.21,-18.17,0,*61
1546848542.72,53153,0.0,0.0,-17.75,-18.21,-18.17,0,*60
1546848543.97,53154,0.0,0.0,-17.75,-18.07,-18.21,0,*66
1546848545.18,53155,0.0,0.0,-17.77,-18.11,-18.21,0,*62
1546848546.43,53156,0.0,0.0,-17.75,-18.17,-18.17,0,*60